Date String (YYYY-MM-DD hh:mm:ss) UTC,Instrument flags,absolute air pressure of the measurement (hPa),sample flow rate (lpm),inlet stack bypass flow (lpm),air temperature of the measurement (°C),ambient temperature measured by the external sensor (°C),aerosol sample conditioner tube jacket temperature (°C),OPC LED temperature (°C),internal box temperature (°C),relative humidity of the measurement (%),span deviation,mass concentration of particles derived from Lorenz-Mie calculation of OPC scattering (μg/m³),mass concentration of particles derived from Lorenz-Mie calculation of OPC scattering (μg/m³),mass concentration of particles derived from Lorenz-Mie calculation of OPC scattering (μg/m³)
DateTimeUTC,F1_M11,P_M11,Q1_M11,Q2_M11,T1_M11,T2_M11,T3_M11,T4_M11,T5_M11,U1_M11,ZSPAN_M11,X2_M11,X0_M11,X1_M11
2023-07-24 08:00:00,SystemResetWarning,0834.8,5.00,000.00,029.3,028.1,000.0,037.7,031.0,20.3,0000.0,0004.16,0008.61,0003.77
2023-07-24 08:01:00,SystemResetWarning,0835.0,5.01,000.00,029.3,028.2,000.0,037.7,031.0,20.3,0000.0,0004.12,0008.57,0003.76
2023-07-24 08:02:00,SystemResetWarning,0835.1,5.00,000.00,029.4,028.2,000.0,037.7,031.1,20.2,0000.0,0004.09,0008.47,0003.75
2023-07-24 08:03:00,SystemResetWarning,0835.0,4.99,000.00,029.4,027.8,000.0,037.7,031.1,20.3,0000.0,0004.08,0007.75,0003.74
2023-07-24 08:04:00,SystemResetWarning,0834.8,5.00,000.00,029.3,026.0,000.0,037.6,030.8,20.3,0000.0,0004.06,0007.24,0003.73
2023-07-24 08:05:00,SystemResetWarning,0834.6,5.02,000.00,029.3,025.4,000.0,037.5,030.7,20.2,0000.0,0004.04,0007.14,0003.74
2023-07-24 08:06:00,SystemResetWarning,0834.7,5.00,000.00,029.2,025.6,000.0,037.5,030.5,20.4,0000.0,0004.04,0007.13,0003.74
2023-07-24 08:07:00,SystemResetWarning,0835.0,5.00,000.00,029.1,025.9,000.0,037.6,030.5,20.7,0000.0,0004.05,0007.12,0003.74
2023-07-24 08:08:00,SystemResetWarning,0835.1,5.00,000.00,029.1,026.3,000.0,037.6,030.6,22.7,0000.0,0004.05,0007.02,0003.74
2023-07-24 08:09:00,SystemResetWarning,0834.7,5.00,000.00,029.1,026.7,000.0,037.6,030.6,22.1,0000.0,0004.07,0006.90,0003.75
2023-07-24 08:10:00,SystemResetWarning,0834.7,4.99,000.00,029.1,027.0,000.0,037.6,030.7,21.9,0000.0,0004.05,0006.00,0003.76
2023-07-24 08:11:00,SystemResetWarning,0834.7,5.00,000.00,029.1,027.3,000.0,037.6,030.7,20.7,0000.0,0004.02,0006.73,0003.76
2023-07-24 08:12:00,SystemResetWarning,0834.9,5.00,000.00,029.2,027.5,000.0,037.6,030.8,20.2,0000.0,0004.08,0007.37,0003.75
2023-07-24 08:13:00,SystemResetWarning,0835.0,4.99,000.00,029.2,027.7,000.0,037.6,030.9,20.2,0000.0,0004.10,0007.40,0003.76
2023-07-24 08:14:00,SystemResetWarning,0835.1,5.00,000.00,029.2,027.8,000.0,037.7,030.9,20.2,0000.0,0004.13,0007.43,0003.78
2023-07-24 08:15:00,SystemResetWarning,0835.1,5.01,000.00,029.3,028.0,000.0,037.7,030.9,20.0,0000.0,0004.15,0007.46,0003.79
2023-07-24 08:16:00,SystemResetWarning,0835.1,5.00,000.00,029.3,028.1,000.0,037.7,031.0,20.3,0000.0,0004.16,0007.50,0003.80
2023-07-24 08:17:00,SystemResetWarning,0835.1,5.00,000.00,029.3,028.2,000.0,037.7,031.0,20.3,0000.0,0004.12,0007.41,0003.80
2023-07-24 08:18:00,SystemResetWarning,0835.1,5.00,000.00,029.4,028.2,000.0,037.7,031.1,20.4,0000.0,0004.13,0007.41,0003.81
2023-07-24 08:19:00,SystemResetWarning,0835.0,4.99,000.00,029.4,028.3,000.0,037.8,031.1,20.5,0000.0,0004.14,0007.54,0003.81
2023-07-24 08:20:00,SystemResetWarning,0834.8,4.99,000.00,029.4,027.0,000.0,037.7,031.0,20.5,0000.0,0004.13,0007.74,0003.82
2023-07-24 08:21:00,SystemResetWarning,0834.5,5.01,000.00,029.3,025.6,000.0,037.6,030.8,20.3,0000.0,0004.13,0007.78,0003.82
2023-07-24 08:22:00,SystemResetWarning,0834.5,5.00,000.00,029.3,025.5,000.0,037.5,030.6,20.2,0000.0,0004.14,0007.56,0003.82
2023-07-24 08:23:00,SystemResetWarning,0834.5,5.01,000.00,029.2,025.8,000.0,037.6,030.5,21.3,0000.0,0004.11,0007.22,0003.84
2023-07-24 08:24:00,SystemResetWarning,0834.5,5.00,000.00,029.2,026.1,000.0,037.6,030.6,21.7,0000.0,0004.10,0007.24,0003.85
2023-07-24 08:25:00,SystemResetWarning,0834.5,5.00,000.00,029.1,026.5,000.0,037.6,030.6,21.6,0000.0,0004.10,0007.33,0003.85
2023-07-24 08:26:00,SystemResetWarning,0834.5,5.00,000.00,029.1,026.8,000.0,037.6,030.7,21.7,0000.0,0004.11,0007.35,0003.85
2023-07-24 08:27:00,SystemResetWarning,0834.5,5.00,000.00,029.2,027.1,000.0,037.7,030.7,21.5,0000.0,0004.14,0007.51,0003.85
2023-07-24 08:28:00,SystemResetWarning,0834.7,5.00,000.00,029.2,027.3,000.0,037.7,030.8,21.3,0000.0,0004.17,0007.61,0003.85
2023-07-24 08:29:00,SystemResetWarning,0834.6,5.00,000.00,029.2,027.5,000.0,037.7,030.8,21.0,0000.0,0004.18,0007.66,0003.85
2023-07-24 08:30:00,SystemResetWarning,0834.6,5.00,000.00,029.2,027.7,000.0,037.7,030.9,21.0,0000.0,0004.21,0007.69,0003.86
2023-07-24 08:31:00,SystemResetWarning,0835.0,5.00,000.00,029.3,027.9,000.0,037.7,030.9,20.7,0000.0,0004.22,0007.50,0003.85
2023-07-24 08:32:00,SystemResetWarning,0834.9,5.00,000.00,029.3,028.0,000.0,037.7,031.0,20.8,0000.0,0004.22,0007.51,0003.86
2023-07-24 08:33:00,SystemResetWarning,0835.0,5.00,000.00,029.3,028.1,000.0,037.7,031.0,20.9,0000.0,0004.21,0007.39,0003.86
2023-07-24 08:34:00,SystemResetWarning,0835.0,5.01,000.00,029.4,028.2,000.0,037.7,031.0,20.7,0000.0,0004.22,0007.20,0003.86
2023-07-24 08:35:00,SystemResetWarning,0835.0,5.00,000.00,029.4,028.3,000.0,037.8,031.1,20.5,0000.0,0004.23,0007.24,0003.86
2023-07-24 08:36:00,SystemResetWarning,0834.9,4.99,000.00,029.4,028.3,000.0,037.8,031.1,20.4,0000.0,0004.23,0007.16,0003.85
2023-07-24 08:37:00,SystemResetWarning,0834.9,4.99,000.00,029.5,028.4,000.0,037.8,031.2,20.6,0000.0,0004.27,0007.45,0003.85
2023-07-24 08:38:00,SystemResetWarning,0835.0,5.00,000.00,029.5,027.3,000.0,037.7,031.1,20.7,0000.0,0004.31,0007.90,0003.86
2023-07-24 08:39:00,SystemResetWarning,0835.0,5.01,000.00,029.4,025.7,000.0,037.6,030.9,20.8,0000.0,0004.32,0008.36,0003.87
2023-07-24 08:40:00,SystemResetWarning,0835.1,5.01,000.00,029.3,025.5,000.0,037.6,030.7,21.0,0000.0,0004.35,0008.54,0003.87
2023-07-24 08:41:00,SystemResetWarning,0835.0,5.01,000.00,029.3,025.7,000.0,037.6,030.5,20.9,0000.0,0004.34,0008.46,0003.88
2023-07-24 08:42:00,SystemResetWarning,0834.6,5.00,000.00,029.2,026.1,000.0,037.7,030.6,21.0,0000.0,0004.35,0008.58,0003.88
2023-07-24 08:43:00,SystemResetWarning,0834.6,5.00,000.00,029.2,026.5,000.0,037.7,030.7,21.0,0000.0,0004.37,0009.36,0003.87
2023-07-24 08:44:00,SystemResetWarning,0834.5,5.00,000.00,029.2,026.8,000.0,037.7,030.7,20.9,0000.0,0004.38,0009.40,0003.86
2023-07-24 08:45:00,SystemResetWarning,0834.5,5.00,000.00,029.2,027.1,000.0,037.7,030.8,20.7,0000.0,0004.38,0009.40,0003.85
2023-07-24 08:46:00,SystemResetWarning,0834.5,4.99,000.00,029.2,027.4,000.0,037.7,030.8,20.7,0000.0,0004.39,0009.46,0003.84
2023-07-24 08:47:00,SystemResetWarning,0834.5,5.00,000.00,029.3,027.6,000.0,037.7,030.9,20.7,0000.0,0004.39,0009.67,0003.84
2023-07-24 08:48:00,SystemResetWarning,0834.5,5.02,000.00,029.3,027.7,000.0,037.7,030.9,20.7,0000.0,0004.36,0009.55,0003.83
2023-07-24 08:49:00,SystemResetWarning,0834.5,5.00,000.00,029.3,027.9,000.0,037.7,030.9,20.6,0000.0,0004.30,0009.20,0003.81
2023-07-24 08:50:00,SystemResetWarning,0834.5,5.00,000.00,029.3,028.0,000.0,037.8,031.0,20.6,0000.0,0004.27,0008.62,0003.80
2023-07-24 08:51:00,SystemResetWarning,0834.5,4.99,000.00,029.4,028.1,000.0,037.8,031.0,20.6,0000.0,0004.21,0008.32,0003.78
2023-07-24 08:52:00,SystemResetWarning,0834.5,4.99,000.00,029.4,028.2,000.0,037.8,031.1,20.5,0000.0,0004.17,0008.27,0003.76
2023-07-24 08:53:00,SystemResetWarning,0834.5,5.00,000.00,029.4,028.3,000.0,037.8,031.1,20.5,0000.0,0004.15,0008.78,0003.76
2023-07-24 08:54:00,SystemResetWarning,0834.5,5.00,000.00,029.5,028.4,000.0,037.9,031.2,20.7,0000.0,0004.13,0008.18,0003.76
2023-07-24 08:55:00,SystemResetWarning,0834.5,4.99,000.00,029.5,028.2,000.0,037.9,031.2,20.8,0000.0,0004.13,0008.15,0003.76
2023-07-24 08:56:00,SystemResetWarning,0834.6,5.00,000.00,029.5,026.5,000.0,037.8,030.9,20.7,0000.0,0004.10,0008.08,0003.76
2023-07-24 08:57:00,SystemResetWarning,0834.5,5.01,000.00,029.4,025.5,000.0,037.6,030.7,20.9,0000.0,0004.07,0007.89,0003.77
2023-07-24 08:58:00,SystemResetWarning,0834.5,5.01,000.00,029.3,025.5,000.0,037.6,030.6,21.0,0000.0,0004.05,0007.62,0003.77
2023-07-24 08:59:00,SystemResetWarning,0834.5,5.00,000.00,029.2,025.8,000.0,037.7,030.5,21.0,0000.0,0004.04,0007.59,0003.77
